Location: Gipe Farm
(40.9466°N, 95.5370°W)
Time: 17:27:16
(UTC-05:00)

Daily predictions for brighter satellites

Satellite Brightness Start Highest point End
(mag) Time Altitude Azimuth Time Altitude Azimuth Time Altitude Azimuth
Abrixas rocket 2.1 21:06:54 10° WSW 21:10:07 83° SSE 21:13:22 10° ENE
ISS -2.4 21:08:19 10° WSW 21:11:28 43° NNW 21:14:36 10° NE
Resurs 1-3 3.6 21:08:53 10° SSE 21:13:14 76° ENE 21:17:39 10° N
Cosmos 2016 Rocket 4.3 21:07:28 10° SSW 21:13:33 74° W 21:19:43 10° N
Cosmos 1898 Rocket 3.9 21:11:53 10° N 21:17:03 50° ENE 21:22:12 10° SE
USA 186 2.7 21:16:26 10° S 21:19:34 51° W 21:22:53 10° NNW
Tiangong 2 1.0 21:16:59 10° WSW 21:20:08 89° SSE 21:23:18 10° ENE
NOAA 11 4.3 21:15:04 10° SSE 21:20:28 66° ENE 21:25:53 10° N
ARGOS 4.1 21:16:01 10° SE 21:20:43 32° ENE 21:25:27 10° N
Cosmos 2322 Rocket 2.7 21:15:18 10° NNW 21:20:43 47° ENE 21:26:06 10° SE
CENTAUR R/B 3.1 21:18:46 10° S 21:23:55 33° ESE 21:29:41 10° NE
H-2A R/B 3.2 21:20:09 10° ESE 21:24:09 25° ENE 21:28:14 10° NNE
Cosmos 1725 Rocket 4.2 21:20:00 10° S 21:26:10 80° W 21:32:25 10° N
Tsikada Rocket 4.1 21:21:17 10° N 21:27:44 89° ENE 21:34:10 10° S
Cosmos 2208 Rocket 4.0 21:22:57 10° SSW 21:28:08 89° ESE 21:33:20 10° NNE
Cosmos 1340 Rocket 4.3 21:25:29 10° SE 21:28:31 21° E 21:31:35 10° NE
SL-16 R/B 2.4 21:24:36 10° NNW 21:30:14 59° ENE 21:35:43 10° SE
Cosmos 1378 Rocket 3.8 21:26:20 10° SSW 21:30:37 71° W 21:34:55 10° N
Cosmos 990 Rocket 4.4 21:27:51 10° N 21:32:56 50° ENE 21:37:44 11° SE
Shenzhou-11 Module 2.3 21:29:59 10° WNW 21:32:57 64° N 21:35:54 10° E
Cosmos 1975 Rocket 3.1 21:30:17 10° S 21:34:31 57° E 21:38:46 10° NNE
YAOGAN 6 4.2 21:31:38 10° SSW 21:35:03 35° W 21:38:28 10° NNW
ELECTRON R/B 4.4 21:33:06 10° N 21:35:31 59° E 21:37:47 12° SSE
Okean 1 Rocket 3.5 21:32:03 10° NNW 21:36:21 63° W 21:40:37 10° S
ATLAS 3B R/B 3.7 21:30:54 10° SW 21:37:54 54° NW 21:44:39 10° NNE
Cosmos 1242 Rocket 2.5 21:36:11 10° N 21:39:50 68° E 21:43:20 11° SSE
Aureole 2 Rocket 3.7 21:39:24 10° NNE 21:41:40 20° ENE 21:43:07 14° ESE
CZ-4B DEB 4.4 21:43:31 12° SSE 21:46:45 72° ENE 21:50:14 10° N
Cosmos 1544 Rocket 4.1 21:47:09 10° N 21:51:22 41° ENE 21:54:28 17° SE
Cosmos 2084 3.5 21:48:27 10° SW 21:52:47 78° NW 21:56:55 10° NNE
Cosmos 2150 Rocket 4.3 21:49:36 10° N 21:54:54 55° ENE 21:58:51 17° SE
CZ-4C R/B 4.2 21:50:25 10° NNW 21:56:18 27° NE 22:02:46 10° E
Cosmos 1975 3.7 21:53:55 10° NNW 21:57:48 47° W 22:01:39 10° SSW
Atlas Centaur 2 3.2 21:59:47 10° SW 22:01:12 12° SSW 22:02:01 11° S
SL-08 RB Rocket 3.9 21:58:55 18° SE 22:02:09 54° ENE 22:06:38 10° N
SJ 16-02 2.8 21:59:22 10° N 22:03:03 25° ENE 22:05:18 17° ESE
Cosmos 2233 Rocket 4.4 21:58:53 10° SSW 22:04:58 63° W 22:11:08 10° N
Resurs 01 Rocket 3.3 22:01:22 10° SSW 22:05:14 30° W 22:09:08 10° NW
Cosmos 1536 Rocket 4.1 22:05:18 20° SSE 22:07:56 39° E 22:12:05 10° NNE
Spot 2 Rocket 4.5 22:03:49 10° S 22:08:36 44° W 22:13:24 10° NNW
ATLAS CENTAUR R/B 4.3 22:07:48 10° W 22:09:53 13° WSW 22:11:58 10° SW
Cosmos 1666 4.0 22:06:35 10° NNW 22:10:13 38° W 22:13:49 10° SSW
Cosmos 2360 Rocket 2.6 22:04:59 10° NNW 22:10:30 52° ENE 22:14:04 21° SE
Cosmos 540 Rocket 3.8 22:06:54 14° S 22:11:01 42° ESE 22:15:54 10° NNE
Cosmos 1980 Rocket 4.4 22:08:41 10° NW 22:12:41 20° W 22:16:40 10° SW
Helios 1B rocket 3.7 22:10:08 10° NE 22:13:23 22° E 22:13:58 21° ESE
Cosmos 2219 Rocket 4.0 22:10:18 10° N 22:14:05 18° NE 22:17:36 11° E
Cosmos 1937 Rocket 3.7 22:09:45 10° NNW 22:14:52 69° WSW 22:18:50 17° S
Cosmos 2298 Rocket 4.0 22:10:27 10° NNW 22:15:47 87° WSW 22:19:29 20° SSE
Cosmos 1763 Rocket 4.0 22:13:51 10° SSW 22:19:07 64° WNW 22:24:23 10° NNE
Cosmos 1743 4.5 22:19:32 10° NNW 22:22:54 29° W 22:26:12 10° SSW
Meteor 2-9 Rocket 4.2 22:18:25 10° NNW 22:23:46 75° W 22:28:01 17° S
Cosmos 841 Rocket 3.6 22:19:28 10° SSW 22:24:43 82° WNW 22:30:01 10° NNE
USA 32 4.1 22:22:31 10° N 22:27:46 80° W 22:31:43 18° S
MetOp-A 4.4 22:25:56 16° S 22:30:09 65° WSW 22:35:30 10° NNW
SPOT 5 3.0 22:28:41 30° SE 22:30:33 50° ENE 22:34:59 10° N
Meteor 1-23 Rocket 4.1 22:30:58 17° S 22:35:22 78° E 22:40:57 10° NNE
Terra 2.9 22:33:59 24° ESE 22:35:39 30° ENE 22:39:47 10° N
Cosmos 2333 Rocket 3.7 22:32:07 10° N 22:36:41 24° NE 22:39:38 16° E
Cosmos 372 Rocket 4.3 22:31:53 10° N 22:36:53 50° ENE 22:39:00 31° SE
BREEZE-M DEB (TANK) 4.4 22:34:54 10° W 22:37:11 22° SSW 22:38:02 21° S
COSMOS 2428 3.5 22:34:44 10° N 22:40:01 38° ENE 22:42:36 25° ESE
CARTOSAT-1 4.5 22:39:20 29° ESE 22:40:29 34° ENE 22:44:25 10° N
Lacrosse 5 rocket 1.6 22:37:23 10° NW 22:41:40 62° NE 22:43:05 37° ESE
USA 234 3.9 22:36:25 10° NE 22:42:50 59° NW 22:49:15 10° WSW
CZ-2C R/B 4.3 22:41:20 23° ESE 22:43:27 30° ENE 22:48:15 10° N
Abrixas rocket 4.4 22:44:02 10° WNW 22:46:49 26° NNW 22:49:36 10° NE
BREEZE M DEB (TANK) 2.9 22:38:39 10° WNW 22:46:51 56° SW 22:47:56 40° S
Cosmos 1833 4.5 22:41:30 10° SSW 22:47:14 71° WNW 22:52:55 10° NNE
ISS -0.7 22:46:38 10° NW 22:48:35 15° N 22:50:32 10° NNE
ERS-1 Rocket 3.3 22:47:45 25° S 22:50:34 62° WSW 22:55:35 10° NNW
Cosmos 1025 Rocket 3.2 22:51:30 45° SE 22:52:24 55° E 22:56:42 10° NNE
Cosmos 2034 Rocket 3.9 22:48:16 19° S 22:52:51 87° W 22:59:03 10° N
Cosmos 1515 4.4 22:51:55 22° SSW 22:54:08 50° W 22:57:52 10° N
USA 245 3.8 22:53:53 35° SSW 22:55:01 51° W 22:59:12 10° NNW
Tiangong 2 1.5 22:53:52 10° W 22:56:59 59° N 22:57:22 53° NE
Cosmos 2297 Rocket 4.1 22:59:44 13° E 22:59:44 13° E 23:01:29 10° ENE
SPOT 1/Viking Rocket 3.5 22:57:27 36° S 22:59:37 86° WSW 23:04:49 10° NNW
ARGOS 4.5 22:56:48 14° SSW 23:00:53 33° W 23:05:45 10° NNW
Cosmos 2227 Rocket 3.9 23:02:54 17° E 23:02:54 17° E 23:05:34 10° ENE
H-2A R/B 3.1 23:00:19 19° SSW 23:03:22 37° W 23:08:02 10° NNW
Cosmos 2322 3.7 22:57:41 10° NNW 23:03:26 82° WSW 23:05:41 39° SSE
Cosmos 2322 Rocket 3.9 23:00:01 10° NW 23:04:25 24° WSW 23:08:09 13° SSW
Meteor 1-29 3.1 23:02:05 10° NNE 23:05:14 61° ENE 23:05:14 61° ENE
Cosmos 2237 Rocket 3.8 23:04:04 10° N 23:08:38 24° NE 23:11:02 18° E
Shenzhou-11 Module 3.8 23:06:06 10° W 23:07:38 25° W 23:07:38 25° W
YAOGAN 11 4.5 23:09:09 45° ESE 23:09:52 50° ENE 23:14:15 10° N
Cosmos 1125 Rocket 3.4 23:07:11 10° NNW 23:12:28 85° WSW 23:13:59 48° SSE
SL-16 R/B 4.3 23:09:55 10° WNW 23:13:47 19° W 23:17:36 10° SW
Cosmos 1066 Rocket 4.0 23:12:12 44° S 23:13:56 75° E 23:19:23 10° NNE
CENTAUR R/B 3.6 23:08:29 10° WSW 23:14:17 46° NW 23:20:57 10° NNE
Helios 1A 3.9 23:18:35 33° SW 23:19:40 40° W 23:23:36 10° NNW
Cosmos 1634 Rocket 4.1 23:17:54 42° SSE 23:19:58 63° E 23:26:14 10° NNE
Okean 2 4.4 23:27:00 31° SW 23:28:22 43° WNW 23:32:22 10° N
Cosmos 1766 3.9 23:27:18 10° N 23:30:44 45° ENE 23:30:44 45° ENE
Cosmos 2219 3.1 23:30:45 47° S 23:32:28 78° ESE 23:38:14 10° NNE
Meteor 1-22 Rocket 4.1 23:27:31 10° N 23:32:50 63° ENE 23:33:40 55° ESE
Cosmos 1892 Rocket 4.0 23:34:27 48° ENE 23:34:27 48° ENE 23:38:13 10° NNE
Cosmos 1544 3.5 23:36:23 10° NNW 23:39:37 61° NW 23:39:37 61° NW
SJ 16-02 2.7 23:37:46 10° NW 23:41:37 29° W 23:42:18 28° WSW
Nimbus 7 Rocket 4.4 23:37:09 10° NNE 23:43:03 82° WNW 23:45:12 42° SSW
Okean 1-7 Rocket 3.7 23:43:20 66° SW 23:43:48 73° W 23:48:21 10° N
CZ-4C R/B 2.9 23:38:21 10° NW 23:45:41 86° WSW 23:48:29 45° SSE
Helios 1B rocket 4.1 23:45:04 10° N 23:48:40 29° WNW 23:50:19 22° WSW
Cosmos 2228 3.3 23:45:57 10° N 23:49:50 60° NE 23:49:50 60° NE
COSMOS 2455 3.3 23:50:51 43° ESE 23:50:51 43° ESE 23:56:14 10° NE
Cosmos 2360 Rocket 3.9 23:49:52 10° NW 23:54:05 22° W 23:55:51 19° SW
Cosmos 1726 Rocket 3.5 23:50:12 10° N 23:54:26 82° NNW 23:54:26 82° NNW
